Flag for U.S.A. Weather past 2 weeks in Bridgeport, Connecticut, U.S.A.

Now
27 °F

Overcast.


Feels Like: 19 °F
Forecast: 20 / 35 °F
Wind: 8 mph from Southwest

Location: Sikorsky Memorial Airport

Current Time: Mar 2, 2015 at 7:00:04 AM

Latest Report: Mar 2, 2015 at 5:52 AM


Visibility: 10 mi

Pressure: 30.01 "Hg

Humidity: 92%

Dew point: 25 °F

Location of BridgeportLocation

Historic Weather in Bridgeport — Graph

°F

Bridgeport temperature yesterday

Maximum temperature yesterday: 27 °F (at 12:00 PM)
Minimum temperature yesterday: 13 °F (at 2:52 AM)
Average temperature yesterday: 22 °F

Past Weeks' High & Low Weather Summary

 TemperatureHumidityPressure
High36 °F (Feb 22, 11:52 AM)100% (Feb 21, 8:52 PM)30.80 "Hg (Feb 21, 8:52 PM)
Low-2 °F (Feb 16, 6:52 AM)25% (Feb 16, 3:52 PM)29.45 "Hg (Feb 15, 5:52 AM)
Average19 °F63%30.15 "Hg
* Reported Feb 15 5:52 AM — Mar 2 5:52 AM, Bridgeport, Weather by CustomWeather, © 2015

Note: Actual official high and low records may vary slightly from our data, if they occured in-between our weather recording intervals... More about our weather records

Advertising

Bridgeport weather history for previous 24 hours

 ConditionsComfort  
Time TempWeatherWind HumidityBarometerVisibility
5:52 AM
Mon, Mar 2
27 °FOvercast.8 mph92%30.01 "Hg10 mi
4:52 AM27 °FOvercast.8 mph89%30.01 "Hg10 mi
3:52 AM27 °FMostly cloudy.7 mph89%30.03 "Hg10 mi
2:52 AM27 °FOvercast.8 mph89%30.05 "Hg10 mi
1:52 AM28 °FMostly cloudy.8 mph89%30.08 "Hg10 mi
12:52 AM27 °FMostly cloudy.3 mph92%30.11 "Hg10 mi
11:52 PM
Sun, Mar 1
27 °FOvercast.5 mph92%30.14 "Hg10 mi
10:52 PM27 °FLight snow. Ice fog.5 mph92%30.18 "Hg3 mi
9:52 PM27 °FLight snow. Ice fog.5 mph92%30.22 "Hg1 mi
9:00 PM27 °FLight snow. Ice fog.5 mph92%30.26 "Hg1 mi
7:52 PM26 °FLight snow. Ice fog.No wind96%30.29 "Hg1 mi
6:52 PM26 °FLight snow. Ice fog.6 mph96%30.32 "Hg1 mi
6:03 PM26 °FLight snow. Ice fog.No wind96%30.35 "Hg1 mi
5:52 PM26 °FLight snow. Ice fog.No wind100%30.35 "Hg1 mi
4:52 PM26 °FSnow. Ice fog.5 mph96%30.39 "Hg0 mi
3:52 PM25 °FSnow. Ice fog.5 mph96%30.42 "Hg0 mi
2:52 PM24 °FSnow. Ice fog.5 mph91%30.47 "Hg1 mi
2:00 PM24 °FLight snow. Ice fog.No wind96%30.52 "Hg1 mi
12:52 PM25 °FLight snow. Ice fog.3 mph85%30.56 "Hg1 mi
12:00 PM27 °FLight snow. Mostly cloudy.No wind66%30.60 "Hg4 mi
10:52 AM26 °FOvercast.No wind71%30.61 "Hg10 mi
9:52 AM23 °FOvercast.6 mph68%30.62 "Hg10 mi
8:52 AM21 °FMostly cloudy.No wind65%30.65 "Hg10 mi
7:52 AM19 °FMostly cloudy.3 mph65%30.68 "Hg10 mi
Weather by CustomWeather, © 2015

See weather overviewHow to use our weather pages